Погода в Балтиморе

США     39°17′24″N   76°36′45″W
темп.,
°C
ветер,
м/с
пор.,
м/с
влажн.,
%
обл.,
%
осадки,
мм/ч
давл.,
гПа
погр.,
м
6 мая, чт
чт623:00+13сз713580 0.0 1014803
02:00+11сз711603 0.0 10151016
05:00+10сз510555 0.0 10161014
08:00+10ссз69601 0.0 1018936
11:00+13с56495 0.0 10181372
14:00+16ссв34435 0.0 10161236
17:00+17ссз2345100 0.0 10141349
20:00+15ю0153100 0.0 1015272
7 мая, пт
пт723:00+13ююз2357100 0.0 101585
02:00+12юз116221 0.0 101326
05:00+11вюв116853 0.0 101239
08:00+12вюв336790 0.0 1011320
11:00+14юв245898 0.0 1010748
14:00+16ююв1250100 0.0 10081149
17:00+12з5777100 1.9 1008699
20:00+9ссз5991100 12.9 1010709
8 мая, сб
сб823:00+9сз3788100 1.9 1010643
02:00+7сз510831 1.9 1009587
05:00+6сз510810 0.0 1010548
08:00+7сз697230 0.0 1012688
11:00+11ссз7955100 0.0 10131478
14:00+13зсз684896 0.1 10131860
17:00+15сз584231 0.0 10131706
20:00+13з510575 0.0 1015575
9 мая, вс
вс923:00+11зсз714590 0.0 1017721
02:00+10зсз6126718 0.0 1018404
05:00+9сз3767100 0.0 1019203
08:00+10зсз245536 0.0 1020275
11:00+15ююз3544100 0.0 10191328
14:00+15юз6749100 0.0 10171263
17:00+10ююз3488100 2.4 1016383
20:00+9в3491100 4.9 1014287
10 мая, пн
пн1023:00+10в3693100 2.9 1013340
02:00+10вюв2593100 3.1 1010274
05:00+11ююз2395100 0.2 1007143
08:00+13юз41491100 0.7 1007390
11:00+19юз51083100 0.7 1006499
14:00+23юз51165100 1.3 10051005
17:00+20зсз71183100 2.3 1004789
20:00+14сз915740 6.3 1010859